Previsão horária em Cazin

Hoje, 27 Julho, Terça-feira

Tempo Temperatura Precipitação Vento Pressão Humidade
00:00 +21°C° 0 mm 2 m/s 725 mmHg 57%
01:00 +21°C° 0 mm 1 m/s 725 mmHg 57%
02:00 +21°C° 0 mm 2 m/s 725 mmHg 55%
03:00 +21°C° 0 mm 2 m/s 725 mmHg 53%
04:00 +21°C° 0 mm 2 m/s 725 mmHg 51%
05:00 +23°C° 0 mm 2 m/s 726 mmHg 53%
06:00 +24°C° 0 mm 2 m/s 726 mmHg 55%
07:00 +25°C° 0 mm 1 m/s 726 mmHg 57%
08:00 +28°C° 0 mm 2 m/s 727 mmHg 49%
09:00 +30°C° 0 mm 3 m/s 727 mmHg 40%
10:00 +34°C° 0 mm 4 m/s 727 mmHg 32%
11:00 +34°C° 0 mm 4 m/s 727 mmHg 30%
12:00 +35°C° 0 mm 4 m/s 727 mmHg 28%
13:00 +36°C° 0 mm 5 m/s 727 mmHg 27%
14:00 +35°C° 0 mm 4 m/s 726 mmHg 27%
15:00 +35°C° 0 mm 4 m/s 726 mmHg 28%
16:00 +35°C° 0 mm 4 m/s 726 mmHg 28%
17:00 +31°C° 0 mm 3 m/s 726 mmHg 37%
18:00 +29°C° 0 mm 2 m/s 725 mmHg 46%
19:00 +26°C° 0 mm 1 m/s 725 mmHg 55%
20:00 +25°C° 0 mm 1 m/s 725 mmHg 56%
21:00 +24°C° 0 mm 1 m/s 725 mmHg 56%
22:00 +23°C° 0 mm 1 m/s 726 mmHg 57%
23:00 +23°C° 0 mm 1 m/s 725 mmHg 57%

Amanhã, 28 Julho, Quarta-feira

Tempo Temperatura Precipitação Vento Pressão Humidade
00:00 +22°C° 0 mm 1 m/s 725 mmHg 57%
01:00 +22°C° 0 mm 1 m/s 725 mmHg 57%
02:00 +22°C° 0 mm 1 m/s 725 mmHg 57%
03:00 +22°C° 0 mm 1 m/s 725 mmHg 56%
04:00 +21°C° 0 mm 1 m/s 724 mmHg 56%
05:00 +23°C° 0 mm 1 m/s 725 mmHg 56%
06:00 +24°C° 0 mm 1 m/s 725 mmHg 56%
07:00 +25°C° 0 mm 1 m/s 725 mmHg 56%
08:00 +28°C° 0 mm 2 m/s 725 mmHg 47%
09:00 +31°C° 0 mm 2 m/s 725 mmHg 38%
10:00 +35°C° 0 mm 3 m/s 725 mmHg 28%
11:00 +35°C° 0 mm 4 m/s 725 mmHg 26%
12:00 +36°C° 0 mm 4 m/s 725 mmHg 23%
13:00 +37°C° 0 mm 5 m/s 725 mmHg 21%
14:00 +37°C° 0 mm 5 m/s 725 mmHg 22%
15:00 +36°C° 0 mm 4 m/s 725 mmHg 23%
16:00 +35°C° 0 mm 4 m/s 724 mmHg 25%
17:00 +33°C° 0 mm 3 m/s 724 mmHg 34%
18:00 +29°C° 0 mm 2 m/s 724 mmHg 42%
19:00 +26°C° 0 mm 1 m/s 724 mmHg 51%
20:00 +25°C° 0 mm 1 m/s 724 mmHg 52%
21:00 +24°C° 0 mm 1 m/s 724 mmHg 52%
22:00 +23°C° 0 mm 1 m/s 725 mmHg 52%
23:00 +22°C° 0 mm 1 m/s 725 mmHg 52%

Depois de amanhã, 29 Julho, Quinta-feira

Tempo Temperatura Precipitação Vento Pressão Humidade
00:00 +22°C° 0 mm 1 m/s 725 mmHg 53%
01:00 +21°C° 0 mm 1 m/s 725 mmHg 53%
02:00 +20°C° 0 mm 1 m/s 725 mmHg 58%
03:00 +19°C° 0 mm 1 m/s 725 mmHg 63%
04:00 +19°C° 0 mm 1 m/s 725 mmHg 69%
05:00 +20°C° 0 mm 1 m/s 725 mmHg 69%
06:00 +21°C° 0 mm 1 m/s 726 mmHg 69%
07:00 +22°C° 0 mm 1 m/s 726 mmHg 70%
08:00 +24°C° 0 mm 1 m/s 726 mmHg 63%
09:00 +26°C° 0 mm 1 m/s 726 mmHg 56%
10:00 +29°C° 0 mm 1 m/s 726 mmHg 49%
11:00 +30°C° 0 mm 1 m/s 726 mmHg 44%
12:00 +32°C° 0 mm 1 m/s 726 mmHg 40%
13:00 +33°C° 0 mm 1 m/s 725 mmHg 35%
14:00 +34°C° 0 mm 1 m/s 725 mmHg 34%
15:00 +34°C° 0 mm 1 m/s 724 mmHg 32%
16:00 +34°C° 0 mm 1 m/s 724 mmHg 31%
17:00 +32°C° 0 mm 1 m/s 724 mmHg 39%
18:00 +29°C° 0 mm 1 m/s 724 mmHg 48%
19:00 +25°C° 0 mm 0 m/s 723 mmHg 57%
20:00 +26°C° 0 mm 1 m/s 723 mmHg 56%
21:00 +24°C° 0 mm 1 m/s 723 mmHg 55%
22:00 +23°C° 0 mm 1 m/s 723 mmHg 54%
23:00 +23°C° 0 mm 1 m/s 723 mmHg 53%

30 Julho, Sexta-feira

Tempo Temperatura Precipitação Vento Pressão Humidade
00:00 +22°C° 0 mm 1 m/s 723 mmHg 51%
01:00 +22°C° 0 mm 1 m/s 723 mmHg 50%
02:00 +22°C° 0 mm 1 m/s 723 mmHg 49%
03:00 +21°C° 0 mm 1 m/s 722 mmHg 48%
04:00 +21°C° 0 mm 1 m/s 722 mmHg 48%
05:00 +22°C° 0 mm 1 m/s 722 mmHg 47%
06:00 +24°C° 0 mm 1 m/s 723 mmHg 47%
07:00 +26°C° 0 mm 1 m/s 723 mmHg 46%
08:00 +28°C° 0 mm 1 m/s 723 mmHg 40%
09:00 +31°C° 0 mm 1 m/s 723 mmHg 34%
10:00 +34°C° 0 mm 1 m/s 723 mmHg 28%
11:00 +36°C° 0 mm 2 m/s 723 mmHg 26%
12:00 +37°C° 0 mm 3 m/s 722 mmHg 23%
13:00 +38°C° 0 mm 4 m/s 722 mmHg 21%
14:00 +38°C° 0 mm 4 m/s 722 mmHg 22%
15:00 +38°C° 0 mm 4 m/s 722 mmHg 22%
16:00 +37°C° 0 mm 4 m/s 722 mmHg 22%
17:00 +34°C° 0 mm 3 m/s 721 mmHg 30%
18:00 +30°C° 0 mm 2 m/s 721 mmHg 38%
19:00 +27°C° 0 mm 2 m/s 720 mmHg 46%
20:00 +26°C° 0 mm 2 m/s 721 mmHg 46%
21:00 +25°C° 0 mm 2 m/s 721 mmHg 46%
22:00 +24°C° 0 mm 2 m/s 721 mmHg 45%
23:00 +23°C° 0 mm 2 m/s 721 mmHg 46%

31 Julho, Sábado

Tempo Temperatura Precipitação Vento Pressão Humidade
00:00 +21°C° 0 mm 2 m/s 721 mmHg 46%
01:00 +22°C° 0 mm 1 m/s 720 mmHg 46%
02:00 +22°C° 0 mm 1 m/s 720 mmHg 47%
03:00 +21°C° 0 mm 1 m/s 720 mmHg 48%
04:00 +21°C° 0 mm 1 m/s 720 mmHg 49%
05:00 +22°C° 0 mm 1 m/s 720 mmHg 50%
06:00 +23°C° 0 mm 1 m/s 721 mmHg 50%
07:00 +24°C° 0 mm 1 m/s 721 mmHg 51%
08:00 +27°C° 0 mm 1 m/s 721 mmHg 46%
09:00 +29°C° 0 mm 1 m/s 721 mmHg 41%
10:00 +31°C° 0 mm 1 m/s 722 mmHg 36%
11:00 +32°C° 0 mm 1 m/s 721 mmHg 33%
12:00 +34°C° 0 mm 1 m/s 721 mmHg 31%
13:00 +36°C° 0 mm 2 m/s 721 mmHg 28%
14:00 +36°C° 0 mm 2 m/s 721 mmHg 27%
15:00 +36°C° 0 mm 3 m/s 720 mmHg 25%
16:00 +36°C° 0 mm 3 m/s 720 mmHg 24%
17:00 +33°C° 0 mm 3 m/s 720 mmHg 33%
18:00 +29°C° 0 mm 2 m/s 720 mmHg 42%
19:00 +26°C° 0 mm 1 m/s 720 mmHg 50%
20:00 +25°C° 0 mm 1 m/s 721 mmHg 52%
21:00 +24°C° 0 mm 2 m/s 721 mmHg 54%
22:00 +23°C° 0 mm 2 m/s 722 mmHg 56%
23:00 +20°C° 0 mm 2 m/s 722 mmHg 66%

1 Agosto, Domingo

Tempo Temperatura Precipitação Vento Pressão Humidade
00:00 +19°C° 0 mm 1 m/s 723 mmHg 76%
01:00 +16°C° 0 mm 1 m/s 723 mmHg 86%
02:00 +16°C° 0 mm 1 m/s 723 mmHg 88%
03:00 +15°C° 0 mm 1 m/s 723 mmHg 90%
04:00 +14°C° 0 mm 1 m/s 723 mmHg 92%
05:00 +16°C° 0 mm 1 m/s 723 mmHg 86%
06:00 +18°C° 0 mm 1 m/s 723 mmHg 80%
07:00 +19°C° 0 mm 1 m/s 723 mmHg 75%
08:00 +22°C° 0 mm 1 m/s 722 mmHg 67%
09:00 +24°C° 0 mm 1 m/s 722 mmHg 59%
10:00 +26°C° 0 mm 1 m/s 722 mmHg 52%
11:00 +28°C° 0 mm 1 m/s 722 mmHg 47%
12:00 +30°C° 0 mm 2 m/s 721 mmHg 42%
13:00 +31°C° 0 mm 2 m/s 721 mmHg 37%
14:00 +32°C° 0 mm 2 m/s 721 mmHg 35%
15:00 +33°C° 0 mm 3 m/s 721 mmHg 34%
16:00 +33°C° 0 mm 3 m/s 721 mmHg 33%
17:00 +29°C° 0 mm 3 m/s 721 mmHg 43%
18:00 +27°C° 0 mm 3 m/s 721 mmHg 54%
19:00 +24°C° 0 mm 3 m/s 722 mmHg 65%
20:00 +21°C° 0.2 mm 2 m/s 722 mmHg 75%
21:00 +20°C° 0.2 mm 1 m/s 723 mmHg 85%
22:00 +16°C° 0.2 mm 1 m/s 724 mmHg 95%
23:00 +16°C° 0 mm 1 m/s 724 mmHg 95%
Mostrar mais

Necessitamos do seu Consentimento

A Meteoprog e os seus Fornecedores de Serviços podem armazenar e aceder a dados pessoais como cookies, identificadores do dispositivo ou outras tecnologias semelhantes existentes no seu dispositivo e processar estes dados para personalizar conteúdos e anúncios, assim como funcionalidades nas redes sociais e análise de tráfego.

  • Armazenar e/ou aceder a informações no seu dispositivo

    Os cookies, identificadores do dispositivo ou outras informações podem ser armazenados ou acedidos no seu dispositivo, para os fins acima indicados.

  • Anúncios e conteúdos personalizados, medição de anúncios e conteúdos, dados sobre o público-alvo e desenvolvimento de produtos

    Os anúncios e os conteúdos podem ser personalizados com base num perfil. Podem ser adicionados dados adicionais para uma maior personalização dos anúncios e dos conteúdos. A eficácia dos anúncios e dos conteúdos pode ser medida. Podem ser obtidas informações sobre o público que visualizou os anúncios e os conteúdos. Estes dados podem ser usados para desenvolver ou melhorar sistemas, softwares ou a experiência do utilizador.

Ao clicar em "Eu concordo”, permitirá o uso de cookies, identificadores do dispositivo e web beacons mencionados ou outras tecnologias semelhantes. As configurações do navegador do seu dispositivo podem ser alteradas.

Para certos fins, podem ser invocados interesses legítimos ao invés de consentimento. Pode ler mais informação sobre este assunto na nossa Política de Privacidade e Cookies.